Theta_e
304 305 305 305 305 304 304 304 304 305 305 305 306 308 311 315 317 314 311 310 308 310 317 320 317 315 314 312 312 313 312 312 311 311 312 311 310 312 311 311 312 312 311 310 310 310 311 311 310 311 310 310 313 313 312 312 312 312 316 316 314 315 315 315 316 314 312 312 312 311 311 311 311 314 315 312 315 320 321 322 321 319 320 319 318 320 320
304 304 304 304 304 305 304 304 304 304 304 305 306 309 311 312 313 313 312 310 308 309 314 317 315 315 313 311 312 312 311 310 309 310 311 311 310 311 310 310 310 310 310 309 308 310 311 311 310 311 310 310 312 313 311 312 312 313 317 316 313 316 318 315 315 315 315 315 314 313 314 312 311 313 314 312 312 316 318 319 317 319 322 318 317 322 322
303 303 304 304 304 304 304 304 304 304 304 304 305 309 312 312 312 311 311 310 308 309 311 312 314 315 313 312 312 310 309 309 309 310 311 311 310 310 309 309 309 308 309 309 308 309 310 311 310 310 310 309 309 311 310 311 312 313 314 313 312 317 318 314 314 315 315 314 314 314 313 310 309 309 310 310 310 311 314 315 313 316 319 316 318 323 322
303 303 303 303 303 303 303 303 303 304 304 304 305 310 313 312 312 311 311 309 307 308 309 310 312 313 311 310 311 310 309 310 309 310 311 310 309 310 309 309 309 309 309 309 309 309 309 310 310 309 310 309 310 310 309 310 312 313 312 310 312 314 313 313 315 315 313 312 312 311 309 307 308 308 308 309 310 311 312 312 313 317 317 315 317 319 317
302 302 302 302 303 303 303 303 303 303 304 303 305 309 311 310 311 310 309 311 310 309 309 308 310 311 310 309 309 309 309 310 310 310 310 310 309 309 310 309 309 310 309 309 310 310 309 309 310 310 310 310 310 309 309 310 313 315 312 308 310 312 311 313 314 312 310 309 309 309 308 307 307 308 309 309 310 312 311 311 314 316 312 312 314 313 313
301 302 302 302 302 302 302 303 303 303 303 304 304 307 309 309 309 308 307 310 312 310 308 308 308 309 310 310 310 310 310 310 310 310 309 309 309 310 311 310 309 309 309 309 310 310 311 311 311 311 311 311 310 309 309 309 311 312 311 309 311 313 313 314 312 309 308 308 307 308 308 308 308 309 310 310 311 312 311 311 313 312 310 311 313 312 312
301 301 301 302 302 302 302 302 303 302 303 304 304 305 307 308 308 308 306 307 308 308 308 308 309 311 312 311 311 311 311 311 310 309 309 310 310 309 311 310 308 308 308 309 310 312 313 314 312 311 310 311 311 311 310 310 309 309 308 309 310 311 313 312 309 309 308 307 308 308 308 308 308 308 309 309 310 311 311 311 311 310 311 312 312 312 312
301 301 301 301 301 301 301 301 302 302 302 303 304 304 304 305 307 308 307 307 307 307 308 308 310 313 313 312 312 310 311 312 310 307 308 310 309 308 309 308 306 306 306 307 310 312 313 313 311 309 310 311 311 310 310 310 309 307 308 308 308 310 311 310 308 310 309 307 308 308 307 308 308 308 308 308 309 310 309 309 310 309 310 311 312 312 311
301 301 301 301 300 300 300 300 301 301 301 302 304 305 303 302 304 305 307 308 308 308 308 307 309 312 311 311 312 310 309 309 308 307 306 306 307 308 307 308 308 307 306 308 309 309 309 309 308 307 308 309 308 308 309 309 308 308 308 309 308 309 310 309 308 310 309 307 307 308 308 309 308 307 308 308 309 310 310 310 310 309 309 310 310 310 309
300 300 300 300 300 300 299 298 298 299 299 300 302 304 303 301 301 304 307 309 309 307 308 307 309 311 310 309 310 308 307 306 307 308 308 306 307 307 306 307 308 307 308 309 307 305 305 305 305 305 305 305 305 305 306 306 307 308 308 308 308 307 308 308 308 308 308 306 307 309 309 308 307 309 312 310 308 310 309 310 312 310 309 310 310 310 309
300 300 300 300 300 299 298 297 297 297 297 298 301 303 303 301 301 303 306 308 308 307 307 308 308 308 308 308 308 308 306 306 306 307 307 306 306 306 305 305 306 306 306 306 305 303 303 304 304 303 304 304 304 304 305 304 305 306 306 307 307 306 307 308 307 307 307 307 307 309 308 306 306 309 312 310 309 310 309 309 311 311 310 311 310 309 309
300 300 300 300 300 300 298 297 297 296 295 297 300 302 302 301 301 303 305 307 308 307 307 308 307 306 307 308 308 307 306 307 307 306 306 306 305 305 305 305 306 306 305 304 304 304 304 303 303 303 303 303 304 303 304 304 305 305 305 306 306 307 308 308 306 307 308 307 307 307 306 306 306 308 311 309 309 311 310 310 311 311 311 311 310 309 310
300 300 300 300 300 300 299 297 297 296 294 296 299 301 301 301 300 302 304 305 306 306 305 306 305 304 306 308 307 306 305 305 305 304 305 305 305 305 305 305 305 305 304 304 303 303 304 303 303 303 303 303 303 303 303 304 304 304 304 304 305 306 307 308 307 307 307 306 306 306 305 306 307 309 311 310 310 313 312 311 312 311 311 311 310 310 309
300 299 299 299 299 299 299 297 297 296 294 296 298 300 301 301 300 300 302 303 304 304 304 304 305 304 305 306 306 305 303 303 304 304 304 304 304 305 305 304 304 304 303 303 303 303 304 304 304 305 304 303 304 305 304 304 304 304 304 304 304 304 306 308 308 308 307 306 307 307 306 306 306 308 312 311 312 313 312 311 312 311 309 309 309 310 309
299 299 298 299 299 298 298 298 297 296 295 295 297 299 300 300 299 299 300 301 302 303 304 304 305 304 304 304 304 305 304 304 305 304 304 304 303 303 303 303 303 304 303 303 303 304 304 304 304 305 305 304 305 306 304 303 304 304 304 305 304 304 305 306 307 307 308 308 307 307 307 306 307 310 313 311 310 311 310 310 311 310 307 307 308 309 308
298 298 297 297 298 297 297 297 296 296 295 294 295 298 299 298 298 298 298 300 301 303 304 303 303 302 303 303 303 303 304 305 305 305 305 304 302 302 302 302 303 303 303 303 303 303 304 304 304 304 304 303 303 303 303 303 303 304 304 305 305 305 305 306 306 307 308 308 307 306 306 306 307 311 312 309 307 309 309 309 309 307 305 305 306 307 307
297 297 297 297 296 296 296 296 295 295 294 293 293 296 298 298 297 297 297 299 300 301 302 301 301 301 302 303 303 302 303 303 303 304 304 303 301 300 301 302 302 302 302 303 303 303 304 304 304 304 304 302 302 303 303 303 303 304 305 305 305 306 307 307 306 306 307 308 307 306 306 306 308 309 309 307 306 307 308 307 307 306 304 305 305 306 306
297 297 296 296 295 294 295 294 294 294 294 292 292 294 297 298 297 296 297 298 299 300 301 300 299 300 300 301 302 302 302 302 302 302 302 302 300 300 301 301 301 302 302 303 304 303 304 304 304 304 304 303 302 303 303 303 303 304 304 304 305 306 307 308 307 307 307 307 307 306 306 307 308 308 307 306 306 306 307 308 308 305 303 304 305 305 305
296 295 295 295 294 294 294 293 293 293 293 292 291 293 296 297 296 296 297 297 298 299 299 298 298 299 299 299 300 300 301 300 301 302 303 303 301 299 301 301 301 301 302 303 303 303 304 304 303 302 303 303 303 303 303 303 303 303 303 303 305 306 307 308 307 307 308 308 307 306 306 306 306 306 305 305 306 307 307 307 306 304 303 304 305 305 305
295 294 294 293 293 293 293 293 293 293 293 293 292 292 295 296 296 297 297 297 297 297 296 296 298 298 297 297 298 299 299 299 299 300 301 301 299 299 302 303 302 302 303 303 303 303 303 304 303 302 303 303 302 302 303 302 302 302 302 303 303 304 305 306 306 305 306 306 305 304 304 304 304 304 304 305 307 308 306 304 303 303 303 304 304 304 305
293 293 293 293 292 292 292 293 293 293 293 293 292 291 294 296 296 297 297 297 297 297 297 296 297 297 296 296 297 297 297 298 298 297 298 298 297 298 301 301 300 300 301 302 302 302 302 302 302 301 302 302 301 302 303 302 302 302 301 302 302 303 303 304 304 303 304 304 304 303 303 302 303 304 304 305 306 305 304 303 304 303 303 304 304 304 304
292 292 292 292 292 292 292 292 293 293 293 293 292 292 293 294 295 296 296 296 296 296 296 295 295 296 297 297 298 298 298 298 298 297 297 297 297 298 299 298 298 299 300 300 300 301 301 301 301 301 301 301 301 302 301 301 302 302 301 302 303 303 302 303 304 304 302 302 302 302 301 301 302 303 303 303 302 302 304 305 304 303 303 304 304 304 304
292 292 291 291 292 292 292 293 293 293 294 293 293 293 292 292 294 295 295 296 296 296 296 295 296 297 298 298 299 299 299 299 298 298 297 297 297 298 298 298 298 299 299 300 300 300 300 300 300 300 300 300 301 300 300 301 301 301 301 301 301 301 301 301 303 303 301 300 301 301 301 301 301 301 301 301 302 303 303 304 304 304 304 304 304 304 304
292 292 291 291 291 292 292 292 293 293 294 294 293 293 292 292 294 295 295 296 296 296 296 295 295 297 298 298 298 298 298 298 298 297 297 297 297 298 298 297 298 298 297 298 299 299 299 299 300 300 300 299 299 299 299 300 300 300 301 301 300 299 299 299 300 301 301 301 301 300 300 300 301 301 301 301 301 302 302 302 303 303 303 303 303 303 304
291 291 291 290 290 291 292 292 292 293 293 293 293 293 292 293 294 294 295 295 295 296 296 296 295 296 298 298 298 298 297 297 297 297 297 297 297 297 297 297 297 297 297 297 298 298 299 299 299 299 299 299 299 299 299 300 299 300 300 300 299 299 299 300 300 300 300 300 300 299 299 300 300 301 301 301 301 301 301 301 302 303 304 304 304 304 304
291 291 290 289 289 291 292 293 293 293 292 292 292 292 292 292 293 293 294 295 295 295 296 296 296 297 297 297 297 297 297 297 297 297 297 297 297 297 297 297 297 297 297 297 298 298 298 298 299 299 299 299 299 299 299 299 299 299 299 299 299 299 299 299 300 300 299 300 300 300 300 299 299 300 300 300 300 301 301 302 302 303 303 303 303 303 303
291 291 291 290 289 290 290 291 292 290 289 290 290 290 291 292 293 293 294 294 295 295 296 296 296 296 295 295 296 297 297 297 297 297 297 297 297 297 297 297 297 297 297 297 297 298 298 298 299 298 298 298 298 298 299 298 298 299 299 298 298 299 299 299 300 300 300 300 300 300 300 300 299 299 300 300 300 300 301 302 302 301 301 301 301 302 303
291 291 290 290 290 289 289 289 289 288 288 288 289 290 292 293 294 294 294 294 294 295 295 296 295 295 295 295 295 295 296 296 296 297 297 297 297 297 297 297 297 297 297 298 298 298 298 298 298 298 298 298 298 298 298 298 298 299 299 298 298 298 298 299 299 300 300 299 299 299 300 300 299 300 300 300 300 301 301 301 301 301 300 301 302 303 303
290 290 289 289 289 289 288 288 288 288 289 289 290 292 295 295 295 295 295 294 295 295 295 295 295 296 296 295 295 295 296 296 297 297 297 297 297 297 297 297 297 297 297 297 298 298 298 298 298 298 298 298 298 298 299 298 298 298 298 298 298 298 298 298 298 298 298 298 299 299 299 299 299 300 300 300 300 301 301 302 302 302 302 302 303 303 303
290 290 289 288 288 288 288 288 289 289 289 289 292 294 296 295 295 296 296 295 295 295 295 295 295 295 295 295 295 295 296 297 297 297 297 297 297 297 297 297 297 297 297 297 297 297 298 298 298 298 298 298 298 298 298 298 298 298 297 298 298 298 298 298 298 298 298 298 299 299 299 299 299 300 300 301 301 301 301 302 302 302 301 302 303 303 303
290 290 289 288 288 288 288 288 289 289 290 291 293 295 296 297 297 296 295 295 295 295 295 295 295 295 295 295 295 296 296 297 297 297 297 297 297 297 297 297 297 297 297 297 297 297 297 298 298 298 298 298 298 297 298 298 297 297 297 297 298 298 298 298 298 298 298 298 299 299 299 299 299 300 300 300 300 301 302 302 302 301 301 301 302 303 303
290 290 288 288 288 288 289 289 289 289 291 293 294 295 296 296 295 294 293 293 293 294 294 295 295 295 295 295 295 296 296 297 297 296 297 296 296 296 296 296 296 297 297 297 297 297 297 297 297 298 298 298 297 297 297 297 297 297 297 297 298 297 298 298 298 298 299 299 299 300 299 299 299 300 300 300 300 301 302 301 302 301 301 301 302 302 302
290 289 288 289 290 290 291 291 290 291 293 295 295 295 295 295 294 294 294 293 293 293 294 295 295 295 296 295 295 296 296 296 296 296 296 296 296 296 296 296 296 296 297 297 297 297 297 297 297 298 298 297 297 298 298 297 297 297 297 297 297 298 298 298 298 298 299 299 299 299 299 299 299 299 299 300 301 302 302 302 302 302 302 302 302 302 302
290 290 289 290 292 293 294 294 293 293 294 296 296 296 296 295 295 294 294 293 293 294 294 294 295 295 296 296 296 296 296 295 295 295 296 296 295 295 296 295 295 296 297 297 298 298 298 297 297 297 298 297 298 298 298 297 297 297 297 297 297 298 299 298 298 298 299 299 299 299 299 300 300 300 300 301 301 302 302 302 302 302 302 303 302 302 302
291 292 291 292 293 294 294 295 295 295 295 296 297 297 296 295 293 293 292 292 293 294 295 295 295 296 296 296 297 296 296 295 295 295 295 295 295 295 295 295 295 296 296 296 296 297 297 296 296 297 298 297 297 297 298 297 297 297 298 298 298 299 299 299 299 299 299 299 299 300 300 301 301 301 301 301 301 301 301 301 301 302 302 302 303 302 302
291 292 293 293 294 295 295 295 296 296 296 295 295 295 294 293 292 293 292 292 293 294 295 295 296 296 296 296 296 296 295 295 295 294 294 294 295 294 294 294 295 295 295 295 296 297 296 296 296 297 297 297 296 297 297 297 298 298 298 299 299 299 299 300 300 299 299 299 300 300 300 300 300 300 300 300 300 300 300 300 300 301 301 302 303 303 303
291 293 294 294 294 295 297 297 297 296 295 294 293 293 293 293 294 295 295 294 294 294 295 295 295 296 296 296 296 296 295 295 294 294 294 294 294 294 294 294 295 295 295 295 295 296 295 295 296 297 297 297 297 297 298 298 298 299 299 299 299 300 300 300 300 300 300 300 300 300 300 300 299 299 299 299 299 298 299 299 299 300 301 302 302 303 304
291 293 294 294 294 295 297 297 296 295 294 293 293 294 294 295 296 296 296 295 295 295 295 295 295 296 296 296 296 296 295 295 294 294 294 294 294 294 294 294 294 294 294 295 295 295 295 296 296 297 298 298 297 297 297 298 298 299 299 299 299 299 300 300 300 300 300 299 299 299 298 298 298 298 298 297 297 298 299 299 299 300 301 302 303 303 303
291 291 292 293 294 294 294 294 294 294 293 294 294 295 296 296 296 296 296 296 296 296 296 295 296 296 296 296 296 295 294 294 294 295 295 294 294 294 294 294 294 294 294 294 295 295 296 297 297 297 298 298 297 297 297 298 298 298 298 298 298 299 299 299 299 299 299 298 297 297 297 296 296 297 297 297 297 299 300 301 301 301 302 302 302 302 302
290 290 291 292 293 294 293 293 293 294 294 294 295 295 296 296 296 296 296 296 296 296 296 296 296 295 295 295 295 295 294 294 294 295 295 294 294 294 293 293 294 294 294 294 295 295 297 297 296 297 298 298 298 297 298 298 298 298 298 298 298 298 298 298 298 298 297 296 296 295 295 295 295 296 296 297 298 299 300 301 301 302 302 301 301 301 301
290 290 291 292 293 293 293 293 294 294 295 295 295 295 295 296 295 295 295 295 295 295 295 295 295 294 294 294 294 294 294 294 293 294 294 294 294 293 293 293 293 293 293 294 295 295 296 296 296 297 298 298 297 298 298 298 298 298 299 299 299 298 298 298 297 296 296 295 294 294 294 295 295 296 297 298 298 299 300 301 301 301 301 301 301 301 300
290 292 292 293 293 293 294 294 295 295 295 295 294 294 295 295 294 294 294 294 294 294 294 294 294 294 293 294 294 293 293 293 293 293 294 294 294 293 293 293 293 293 294 295 295 295 296 296 296 297 297 297 297 297 298 298 298 298 298 299 298 298 298 297 296 295 295 294 294 295 295 295 296 296 297 298 298 299 300 300 300 301 301 301 300 300 299
291 293 293 294 294 294 294 294 295 295 295 294 294 293 294 294 294 294 295 294 294 294 295 294 294 294 294 294 294 293 293 293 293 293 294 294 294 293 293 293 293 294 295 295 295 296 296 296 296 297 297 296 296 297 297 298 298 298 298 298 298 298 297 297 296 295 294 294 295 295 295 295 296 296 297 297 297 297 298 299 299 299 300 299 299 298 298
292 293 294 294 294 294 293 294 294 294 294 294 293 293 294 294 294 295 295 295 294 294 294 294 294 294 294 294 293 293 293 293 293 293 293 294 293 293 293 293 294 294 295 295 295 296 296 296 296 296 296 296 296 296 297 297 298 298 298 298 298 297 297 296 295 295 295 295 295 295 295 295 295 295 296 296 296 297 297 297 298 298 298 298 297 297 297
293 294 293 293 293 293 293 293 293 294 294 294 294 295 295 295 295 295 295 294 294 294 294 294 293 294 294 294 293 293 293 293 293 293 293 293 293 293 293 294 294 295 295 295 295 295 296 296 296 296 296 296 296 296 297 297 297 297 298 297 297 297 296 295 295 295 295 295 295 296 296 296 296 296 295 296 296 296 296 297 297 297 297 297 297 297 297
293 293 293 293 293 293 292 292 293 293 294 295 295 295 295 295 295 295 294 294 294 294 294 294 293 294 293 293 293 293 293 293 294 294 293 293 293 293 293 294 294 295 295 295 295 295 296 296 296 296 295 295 296 296 296 297 297 298 298 297 297 296 296 295 295 295 295 295 295 295 296 296 296 296 296 296 296 296 296 296 296 297 297 297 297 297 297
293 293 293 292 293 293 293 293 293 294 294 294 294 294 295 295 294 294 294 294 294 293 293 293 294 294 293 293 293 294 293 293 294 294 293 292 293 293 293 293 294 294 295 295 295 295 295 296 296 295 295 295 296 297 297 297 297 298 297 297 297 296 296 296 295 295 295 295 295 295 295 295 295 296 296 296 296 296 296 296 297 297 297 297 297 297 297
293 293 292 292 292 293 294 294 293 294 294 294 294 294 295 294 294 294 294 293 293 293 293 293 293 293 293 293 293 294 294 293 293 293 293 293 293 293 293 293 294 295 295 295 295 295 295 295 296 295 295 295 296 297 297 297 297 297 297 297 297 296 296 295 295 295 295 295 295 295 295 294 295 295 295 295 295 296 296 296 297 297 297 296 296 296 296
293 292 292 292 292 293 293 293 293 293 294 294 294 294 294 294 294 294 294 293 293 293 294 293 293 293 293 293 293 293 294 293 292 292 293 292 292 292 293 293 294 294 295 295 295 295 295 295 296 295 295 295 296 297 296 296 297 297 297 297 296 296 296 295 295 294 294 295 295 295 295 295 295 295 295 295 295 295 295 295 296 296 296 296 296 296 296
292 292 292 292 292 292 293 293 293 293 294 294 294 294 294 294 294 294 294 293 293 293 293 293 293 293 293 293 292 292 293 293 292 292 292 292 292 293 293 293 293 294 294 295 295 295 295 295 295 295 295 295 296 296 296 296 296 296 296 296 296 296 296 295 294 294 294 294 294 294 294 294 294 295 295 295 295 295 295 295 295 295 295 295 296 296 295
292 291 292 292 292 292 292 293 293 293 293 293 293 294 293 293 293 293 293 293 293 293 293 293 293 293 293 293 292 292 292 292 292 292 292 292 293 293 294 294 294 294 294 295 295 295 295 295 295 294 295 295 296 296 296 296 296 296 296 296 296 296 295 295 295 294 294 294 294 293 293 293 293 293 293 293 294 294 294 294 294 294 294 294 295 295 294
291 292 292 292 292 292 292 292 293 293 293 293 293 293 293 293 293 293 293 293 293 293 293 293 293 293 292 292 292 292 292 292 292 292 292 293 293 294 294 294 294 294 294 295 295 295 295 295 294 294 295 295 295 295 295 295 296 296 296 296 296 296 295 295 295 294 294 294 294 293 293 293 293 293 292 292 292 292 292 292 292 293 293 293 293 293 292
Wind_Speed
17 17 17 17 18 18 19 21 23 25 24 22 19 17 14 12 9 6 7 11 14 10 3 4 3 2 7 11 9 9 8 7 7 6 7 6 3 3 3 4 4 3 4 4 5 5 3 3 4 4 6 5 1 4 8 8 3 3 3 2 2 1 2 0 3 3 4 7 8 10 11 10 7 5 3 3 1 3 5 5 3 3 3 3 3 2 7
18 18 17 17 18 18 18 18 19 22 23 23 22 18 16 16 14 8 4 9 15 8 0 4 5 4 7 8 8 12 11 8 8 7 4 3 5 3 3 5 3 3 4 4 5 5 2 2 3 4 5 3 2 0 5 4 2 3 4 2 0 0 0 1 2 4 5 5 4 5 5 3 2 3 5 5 3 2 1 1 2 1 4 5 4 3 7
18 18 18 18 18 18 18 17 17 18 19 20 19 17 15 13 11 9 10 14 14 7 3 3 3 3 6 7 7 9 8 9 12 12 5 3 4 2 2 7 6 4 5 5 5 5 4 2 2 3 4 4 8 8 2 6 4 7 10 9 6 2 2 2 1 4 5 3 2 1 4 4 3 4 6 8 7 5 2 1 1 1 4 3 4 4 7
19 19 19 19 19 19 18 17 17 17 17 18 17 13 11 8 5 7 14 16 11 11 13 11 5 3 6 5 5 5 5 8 13 11 4 2 4 2 2 7 7 4 5 5 5 5 5 5 3 4 5 4 7 13 13 3 8 12 12 12 8 2 2 3 5 6 6 5 5 4 6 6 7 8 10 9 8 5 3 2 1 3 3 4 5 5 6
20 20 20 19 19 19 18 18 17 17 17 16 14 12 11 7 2 4 8 9 9 13 17 14 8 6 7 3 4 6 5 6 6 5 2 4 6 3 1 2 4 3 5 4 3 4 5 6 5 5 6 4 6 15 21 11 9 12 8 9 8 3 2 6 7 9 9 8 9 8 7 8 10 11 13 12 7 4 4 2 5 4 2 5 6 3 3
20 20 20 20 20 20 19 19 18 17 17 15 12 11 9 5 4 6 6 3 4 8 12 14 10 9 8 4 4 6 7 5 4 4 5 7 7 3 0 1 2 4 7 6 4 3 3 5 5 4 5 6 7 10 13 9 3 1 1 4 5 2 3 6 6 8 10 8 8 8 7 9 10 11 13 12 7 4 3 6 8 5 3 6 8 5 5
20 20 20 20 20 20 20 20 18 17 16 14 13 11 9 7 5 8 9 7 8 10 14 18 13 7 6 5 4 5 6 5 6 7 5 2 6 7 3 3 4 5 7 7 3 2 1 2 4 4 5 5 5 5 6 7 10 9 4 2 1 1 3 4 4 7 8 7 7 9 8 9 10 13 13 9 6 6 7 8 7 5 6 8 8 7 8
20 21 21 21 21 21 21 21 20 18 15 13 13 14 11 9 7 11 14 11 13 15 15 14 9 5 6 4 4 5 5 5 5 6 5 4 5 8 7 7 8 7 7 8 4 2 4 5 2 4 5 5 3 2 3 5 9 10 5 3 2 2 1 2 2 5 6 4 6 9 8 8 12 14 11 7 7 9 9 8 7 6 7 7 6 8 9
21 22 22 22 21 21 21 21 20 20 18 13 13 15 12 8 5 8 10 8 8 11 11 10 6 4 4 4 4 4 4 5 5 5 8 7 4 6 8 8 8 7 7 8 4 2 1 4 2 4 2 3 5 5 5 6 7 6 5 5 3 2 3 3 3 5 4 2 5 9 7 8 13 13 8 5 7 8 6 6 6 5 6 7 7 7 9
22 22 22 22 22 21 20 20 20 20 18 15 14 15 15 11 3 4 7 5 7 8 8 8 6 3 5 6 6 3 5 11 11 5 6 9 9 11 12 9 6 6 6 7 8 12 12 9 10 10 7 7 10 12 14 15 11 5 3 5 3 3 3 3 2 5 3 1 3 6 5 7 10 8 4 6 7 7 6 6 6 6 6 5 6 6 7
22 23 23 23 23 21 19 19 19 19 17 16 15 14 17 16 9 9 9 4 6 9 7 4 4 5 11 13 10 7 4 5 7 4 3 8 15 19 17 11 5 2 4 9 12 16 18 17 17 19 17 15 14 17 19 19 17 12 6 3 3 3 4 2 1 3 3 1 3 5 6 6 6 3 2 3 5 6 6 7 6 5 3 2 4 4 3
22 23 24 24 23 22 19 17 17 16 14 12 11 12 15 16 12 10 8 3 5 9 5 5 8 10 14 14 11 11 9 4 5 6 5 6 12 17 17 10 4 4 10 14 13 15 18 17 16 18 17 16 17 20 19 16 17 19 14 7 5 5 5 4 2 3 3 2 5 2 8 7 2 2 3 6 5 2 4 6 4 2 4 5 6 5 5
23 23 24 24 24 22 20 17 15 14 11 8 8 10 13 15 11 8 8 4 3 5 5 10 17 16 15 15 11 12 16 14 12 12 9 8 10 12 13 9 6 9 13 13 10 11 11 8 7 9 10 11 14 16 17 16 16 18 17 14 10 7 5 4 3 3 3 1 3 4 9 8 5 3 4 6 5 3 4 6 5 4 5 5 4 5 6
23 23 23 24 24 22 21 17 14 13 10 6 5 8 10 13 10 9 10 4 3 9 9 8 12 12 12 15 13 10 13 14 12 11 10 11 10 10 13 14 12 12 11 8 8 8 4 2 3 4 4 6 7 7 10 13 15 17 18 16 13 9 5 4 4 4 4 4 4 4 7 10 7 3 1 1 1 2 3 1 5 5 5 5 5 5 7
23 24 24 24 24 22 21 19 15 13 10 5 3 5 10 13 11 6 6 5 5 10 8 4 9 12 10 11 12 9 6 7 7 8 10 13 12 10 11 13 13 11 9 5 5 3 1 1 2 3 3 3 4 5 5 6 8 13 16 16 15 13 10 7 5 5 5 4 4 3 5 8 4 1 1 4 8 8 7 3 3 4 7 9 6 4 4
23 24 24 24 24 22 21 20 16 13 11 6 1 2 9 14 11 5 4 6 4 4 6 10 18 17 11 9 12 9 4 4 5 5 6 9 12 15 15 14 12 9 6 2 1 2 1 0 1 2 3 3 5 6 5 5 5 6 7 8 10 13 12 8 6 4 4 5 5 4 5 6 3 4 3 5 10 10 7 4 4 4 4 8 5 3 5
23 23 23 22 22 21 21 20 16 13 13 10 3 2 6 10 12 9 6 7 7 10 13 14 19 17 10 7 10 10 7 6 6 4 3 5 12 18 18 15 15 14 7 1 2 1 0 1 1 2 3 4 6 6 5 5 6 5 6 8 5 4 5 6 7 7 5 4 4 3 3 2 2 4 4 6 8 7 6 3 5 5 4 5 2 2 6
22 23 23 21 19 19 20 19 17 14 14 12 5 1 2 5 9 9 8 8 8 9 10 9 14 15 11 8 9 10 9 9 8 5 4 5 9 14 15 12 12 12 8 2 2 1 0 1 2 2 4 5 5 5 5 5 5 5 5 6 6 4 2 4 6 6 6 5 4 3 2 1 2 1 4 6 5 4 2 3 6 5 7 8 5 4 7
22 21 22 20 17 17 18 17 16 15 16 15 10 4 2 4 8 10 10 8 7 11 14 10 11 13 13 12 11 11 12 12 10 6 3 3 9 17 16 11 7 7 6 3 1 1 1 2 3 2 3 4 4 4 5 4 4 4 5 5 5 4 3 1 1 3 4 4 3 3 2 1 2 3 3 2 2 1 3 4 4 6 8 9 8 8 9
21 20 21 20 17 15 16 16 15 15 16 17 13 7 4 7 10 12 10 8 11 18 19 10 8 12 14 12 10 11 13 13 11 8 3 4 13 18 10 4 7 8 5 4 2 0 1 2 2 2 3 3 3 3 4 5 5 5 5 5 4 3 2 3 3 2 1 0 1 1 1 1 4 3 1 2 2 4 8 8 8 8 9 8 9 10 10
20 20 20 20 17 15 15 15 13 14 15 15 14 9 4 5 7 8 10 10 11 15 13 7 9 15 13 9 10 11 11 11 11 10 9 10 12 10 2 5 9 7 3 2 2 1 2 2 2 2 2 3 3 3 3 4 5 6 7 5 4 3 2 2 2 2 1 2 2 1 2 3 3 3 2 3 6 12 13 8 7 10 8 7 9 13 14
20 19 18 18 17 15 14 13 13 13 15 15 15 12 9 5 2 4 11 12 11 15 18 17 17 14 7 6 7 7 9 12 10 8 10 13 11 8 8 12 14 10 6 6 3 2 2 2 2 2 2 2 2 3 4 4 3 5 7 5 4 4 4 0 2 0 1 2 4 5 9 12 9 7 10 12 14 16 12 9 9 12 11 10 12 16 17
19 18 18 17 16 14 13 12 13 13 14 15 15 14 13 8 3 5 10 11 13 17 19 16 15 10 6 7 5 3 6 10 9 9 11 11 9 9 10 10 11 10 9 10 6 4 3 1 1 2 2 2 3 4 4 4 3 3 4 5 6 8 10 4 1 3 4 5 5 7 12 17 19 20 20 17 15 14 11 11 13 15 15 15 16 17 17
18 18 18 17 14 13 13 12 12 13 14 14 14 14 12 7 5 8 12 12 14 16 14 11 11 9 12 14 10 5 5 7 10 14 14 11 8 8 9 8 9 10 10 9 9 8 5 2 2 2 1 2 3 3 4 4 4 4 4 4 5 8 12 8 4 5 5 4 5 7 11 16 20 20 18 16 14 13 14 15 15 16 18 18 17 17 18
18 18 18 17 14 12 12 13 13 13 13 13 13 13 12 7 5 8 10 10 13 13 9 10 11 8 13 17 12 8 9 10 11 14 14 13 12 11 11 13 13 11 13 14 11 8 5 2 2 3 3 3 4 3 4 4 4 4 3 3 3 6 10 7 5 5 4 6 10 13 16 19 18 15 17 19 19 17 17 15 14 15 16 17 18 20 21
18 18 18 16 13 12 13 13 14 14 13 13 14 13 12 10 7 5 4 7 11 10 7 9 11 12 18 20 14 10 12 11 11 13 14 14 14 13 13 16 15 12 12 13 12 10 6 2 1 2 2 3 4 4 4 4 4 4 4 5 8 9 9 5 5 6 6 8 10 12 16 18 18 17 19 21 21 20 18 13 12 15 16 18 20 22 22
18 17 17 16 14 14 14 13 14 15 15 15 15 14 12 9 5 3 4 5 8 6 4 6 14 21 25 21 13 13 15 14 13 14 15 14 15 14 12 12 13 14 13 12 12 10 7 3 2 4 5 7 8 7 6 7 7 5 5 8 10 9 6 5 4 5 4 5 7 8 8 9 14 17 19 20 21 21 18 15 15 18 20 20 21 20 19
17 17 17 16 15 14 14 14 15 15 15 16 15 12 8 4 1 1 2 4 6 8 8 13 20 25 24 19 17 18 18 16 13 13 13 14 14 13 13 12 12 14 13 10 7 4 3 3 4 5 5 5 5 5 7 8 7 4 5 9 12 10 7 6 5 5 6 10 14 15 12 11 16 20 21 21 22 22 20 20 21 22 21 19 17 16 18
17 17 16 15 15 14 14 16 16 14 14 15 13 8 6 5 3 1 3 5 8 11 14 16 18 17 17 19 22 21 15 10 11 13 14 14 13 13 14 14 14 15 15 13 9 7 6 8 10 9 8 5 3 2 3 4 4 5 10 16 18 15 16 17 14 11 13 17 20 19 14 13 18 22 22 22 23 24 23 21 19 19 18 16 14 15 19
16 16 15 15 14 14 15 15 14 12 13 12 9 7 5 3 3 4 5 7 10 11 11 9 9 13 19 23 23 19 14 12 12 13 11 10 10 11 12 13 14 14 13 12 11 9 7 9 11 13 15 13 7 2 1 3 3 7 15 19 19 18 20 22 21 18 19 21 20 17 16 18 21 22 23 23 23 24 22 18 17 19 20 18 15 16 19
16 16 15 14 13 13 13 13 11 10 10 7 4 5 4 1 3 2 4 5 9 10 8 7 9 14 20 21 18 16 16 16 14 12 11 11 11 11 11 12 14 13 12 12 11 8 7 8 8 9 14 15 9 3 2 2 3 8 14 16 16 19 22 24 24 23 22 22 21 19 20 23 21 19 20 21 20 21 21 21 22 24 23 20 17 16 16
16 15 14 11 10 11 11 10 9 8 7 5 2 4 5 4 5 7 7 6 9 9 6 6 8 7 9 13 16 18 17 15 12 12 12 11 11 11 11 12 13 15 15 13 9 6 8 13 13 13 15 14 7 2 2 4 5 11 17 18 18 21 24 24 23 22 21 21 19 15 16 20 21 19 20 22 20 20 22 23 23 21 19 19 19 17 15
15 13 11 8 7 8 8 8 8 7 5 4 3 3 4 4 6 7 8 9 9 7 5 5 4 2 5 13 17 16 12 10 11 11 11 11 10 10 11 12 14 15 14 10 7 6 7 11 12 12 15 14 8 2 2 6 11 18 24 25 25 25 24 20 19 20 21 20 16 12 13 19 22 22 21 20 18 18 19 19 18 17 15 16 17 16 16
13 11 8 5 5 6 6 6 7 6 5 5 6 6 4 4 6 9 11 10 8 6 6 5 3 2 6 12 11 7 7 11 12 10 10 11 11 10 10 11 11 9 9 9 8 7 7 8 8 7 9 9 6 2 3 9 16 23 27 27 25 22 19 18 19 20 19 17 16 16 17 19 20 21 20 17 16 16 15 14 14 14 14 14 14 14 16
11 8 7 6 7 9 9 8 7 5 5 6 9 9 8 9 12 13 11 8 5 4 4 5 4 3 4 6 4 4 10 14 13 11 11 12 12 12 11 9 6 6 8 9 9 6 6 6 6 5 5 4 3 3 5 9 14 19 20 20 19 17 15 16 18 18 17 16 17 17 16 13 13 14 13 12 11 11 11 12 12 11 11 12 12 12 13
10 7 7 8 9 12 14 11 7 4 5 8 11 13 13 15 15 13 10 7 6 5 4 4 3 3 3 3 3 6 11 12 10 11 14 12 11 12 13 8 4 7 10 9 6 4 5 6 4 3 3 3 4 5 7 9 12 16 18 20 21 20 17 16 17 17 17 14 11 9 8 7 8 9 9 9 9 10 11 13 13 11 10 11 11 10 8
11 7 7 8 10 12 10 5 2 3 7 11 13 14 14 13 10 8 7 6 6 8 8 5 4 6 7 4 4 6 7 6 9 11 11 10 8 9 11 7 4 6 8 5 3 6 10 11 6 2 3 5 4 6 13 17 16 17 19 22 22 20 18 17 17 15 12 7 3 3 4 5 6 8 9 10 11 11 13 15 13 10 11 12 10 8 7
12 9 7 8 10 8 5 3 5 10 12 11 11 10 9 7 4 4 4 4 5 8 10 7 6 11 10 5 5 8 8 8 9 7 6 7 7 6 5 5 4 4 4 3 5 9 10 7 3 2 4 5 6 11 17 20 20 20 21 22 21 19 16 12 9 6 1 2 4 6 7 7 9 10 10 11 12 11 12 13 11 8 8 9 7 6 5
12 11 7 6 7 8 7 9 13 14 10 7 7 7 5 4 2 2 5 6 5 6 9 8 9 13 11 6 7 11 10 9 7 4 4 7 6 3 2 4 5 4 2 3 5 6 4 1 2 3 3 2 6 13 18 19 19 19 18 15 13 9 3 3 5 6 7 7 5 5 6 7 8 8 9 10 10 9 9 8 5 4 2 1 2 3 3
14 13 9 7 9 10 10 10 9 7 5 4 5 4 4 4 4 3 4 4 3 5 8 7 7 10 9 5 6 7 10 10 6 5 5 7 7 5 3 2 3 2 2 3 4 5 2 1 3 3 1 2 8 15 18 17 16 14 11 8 7 8 11 13 12 9 7 6 6 6 7 6 5 5 5 6 6 8 10 8 4 6 9 10 10 8 7
17 16 13 12 13 13 12 10 5 3 3 4 4 3 2 4 5 5 4 2 1 3 5 2 3 4 7 10 9 8 11 13 10 8 6 5 6 5 3 2 3 2 2 2 5 5 2 2 3 2 3 8 13 17 18 17 15 11 7 7 11 14 14 13 12 9 9 9 10 10 9 6 4 3 2 4 7 11 13 14 15 17 18 16 13 11 11
14 13 13 15 17 16 14 10 5 2 3 2 2 1 2 3 4 5 3 1 2 2 2 3 4 4 7 11 11 11 12 11 9 7 5 3 4 4 2 2 2 1 3 4 7 4 2 2 3 3 6 13 18 19 17 15 12 8 5 7 12 14 14 13 12 13 13 12 12 12 10 9 9 9 9 10 14 16 17 19 21 21 19 16 15 18 22
7 6 10 13 15 14 11 6 4 3 2 1 1 1 2 2 1 2 1 1 3 4 4 6 8 9 9 10 10 11 11 10 8 5 3 3 4 4 1 1 1 2 4 5 4 2 1 2 2 4 9 17 21 19 14 10 7 5 5 10 13 14 14 13 14 15 15 15 15 15 15 15 16 18 20 20 22 24 23 24 25 26 25 26 27 29 30
8 8 10 9 9 8 6 2 3 3 1 1 1 1 3 2 1 2 2 1 1 3 5 7 9 8 8 11 12 11 9 6 4 3 3 4 3 2 1 2 2 3 5 4 1 1 2 2 3 7 14 19 19 15 11 8 6 3 6 11 14 14 13 13 14 15 17 19 19 20 21 22 23 25 27 28 30 31 31 30 30 30 31 31 30 28 27
11 11 10 7 4 3 2 1 2 2 2 2 2 2 3 3 3 3 1 1 2 5 8 11 11 9 10 13 12 8 6 5 3 2 2 3 1 1 2 3 2 2 3 3 2 2 3 2 5 11 17 19 17 13 11 10 8 4 9 13 14 14 13 13 14 15 16 17 19 21 24 26 28 29 30 32 34 35 35 34 34 34 34 34 32 31 31
10 9 8 5 3 3 1 1 1 1 1 3 4 5 4 4 5 5 5 5 7 9 10 11 11 11 12 13 10 8 9 8 4 1 2 2 2 2 3 4 3 2 2 2 2 3 3 3 6 12 18 19 15 12 12 10 5 6 13 16 16 15 15 15 15 15 15 15 16 18 20 23 27 29 30 32 34 36 37 37 36 37 38 38 38 37 36
8 7 5 4 3 3 3 3 4 6 8 11 13 14 13 10 10 11 8 4 4 7 9 10 11 11 12 11 8 7 8 7 3 2 2 2 1 1 3 2 1 1 1 2 3 2 3 6 10 14 19 18 15 13 12 9 7 11 15 17 17 16 16 15 15 15 14 15 16 17 18 20 22 25 27 29 31 33 34 35 35 35 36 36 36 34 33
7 5 3 3 2 2 2 5 8 11 16 17 18 18 16 12 10 12 9 5 4 6 7 9 10 9 8 8 7 4 4 4 3 2 2 1 0 1 2 1 1 1 1 2 2 2 6 12 15 16 17 17 14 12 12 10 12 14 15 16 17 17 17 17 17 17 16 15 16 17 18 19 20 21 23 24 26 27 28 28 29 29 29 29 29 29 28
8 6 5 5 4 5 9 13 13 14 17 19 19 18 15 11 10 12 10 5 5 6 7 9 10 7 4 5 5 3 2 2 1 1 1 1 1 1 1 1 2 2 1 1 2 6 12 16 16 15 16 16 12 11 12 11 12 12 13 15 17 17 16 17 19 20 21 21 20 19 18 18 19 20 20 21 22 22 22 22 22 23 23 23 23 23 22
8 8 9 8 7 8 12 13 10 8 11 15 17 16 13 11 10 11 7 4 5 7 8 9 9 5 2 2 3 2 1 2 1 1 2 2 1 1 2 2 2 2 2 4 7 11 15 16 14 13 14 12 8 10 11 11 12 13 14 16 17 17 15 15 16 18 20 21 22 22 22 21 21 21 21 21 20 19 18 18 18 18 17 17 17 17 18
5 6 9 11 11 11 12 11 8 7 9 14 17 18 16 13 12 12 10 8 6 5 5 5 5 3 1 2 2 1 2 3 1 1 2 2 1 0 2 2 2 3 7 10 13 14 14 13 11 9 8 4 5 9 10 10 11 13 14 15 15 15 14 14 15 15 15 17 18 20 21 21 22 23 23 23 22 22 22 21 19 17 16 15 14 14 15
6 7 9 13 16 18 17 16 15 15 16 17 18 18 17 15 13 13 12 9 5 3 3 5 4 2 1 1 1 1 2 3 2 2 2 2 1 1 2 4 6 8 12 14 14 13 12 11 8 5 1 2 6 9 10 9 9 10 12 13 13 13 13 13 13 13 13 13 13 14 15 17 18 19 20 21 21 22 23 22 20 19 18 19 18 18 18
Wind_Direction
12 11 11 9 8 9 9 7 4 2 4 7 9 6 358 345 318 315 17 18 356 350 326 314 324 297 341 345 336 347 355 334 329 323 303 310 338 346 343 352 355 334 328 329 314 315 311 302 318 308 321 346 155 126 71 61 56 63 66 45 358 340 79 39 289 283 275 286 284 273 277 286 291 300 313 306 269 147 156 191 183 155 202 193 143 230 274
9 9 7 6 6 6 7 9 7 3 3 2 1 357 348 336 322 318 11 355 343 346 260 328 335 313 341 356 349 349 347 320 314 310 287 332 7 7 331 327 321 303 312 308 301 313 310 301 321 308 313 332 276 61 95 112 102 112 161 186 147 258 108 57 327 317 321 326 313 296 309 334 325 297 317 330 347 48 71 170 117 151 218 192 162 227 257
7 6 5 5 4 3 3 7 8 5 2 358 355 350 345 339 331 328 329 328 336 350 337 321 313 321 357 3 343 340 328 308 315 317 308 331 341 335 311 319 320 316 324 318 305 312 308 291 299 302 303 285 290 304 252 185 164 150 163 148 122 150 180 110 192 257 276 267 217 304 344 342 323 302 310 316 316 324 350 82 57 269 250 213 183 233 264
6 6 6 5 3 2 2 3 5 6 2 357 356 357 353 343 332 333 327 328 342 347 344 1 24 1 9 358 317 314 301 306 318 324 346 6 315 308 324 329 335 336 328 320 304 311 318 315 314 306 299 276 295 323 333 340 140 145 147 133 118 122 178 160 190 217 235 238 240 305 337 315 302 306 304 296 294 313 24 63 226 223 264 278 223 221 286
7 6 6 5 4 3 1 2 4 5 3 359 0 10 4 340 327 13 341 325 341 344 344 3 18 341 340 332 293 303 296 300 317 326 345 312 297 280 191 325 335 324 319 315 296 298 295 290 299 303 300 310 328 333 341 6 123 145 148 145 138 106 192 205 214 228 243 251 262 285 300 285 283 290 288 281 285 336 17 309 251 236 290 290 252 213 277
7 7 7 6 5 3 1 4 4 5 7 4 6 22 22 359 352 19 15 322 325 345 335 331 328 322 323 308 285 300 300 303 309 301 299 300 304 320 162 244 282 299 305 294 271 289 292 286 312 330 324 342 353 337 339 360 31 304 286 162 152 131 209 214 216 238 247 249 261 269 263 263 269 268 270 277 296 332 310 260 255 252 242 252 254 239 228
7 8 9 6 5 4 3 4 3 8 13 6 12 33 31 13 354 347 355 338 309 310 309 305 298 287 290 286 270 282 289 292 288 283 283 318 355 5 1 291 309 324 315 310 317 17 3 296 321 355 354 349 354 332 323 337 335 327 322 274 256 138 206 222 225 257 264 258 265 273 270 273 276 268 268 285 309 299 278 268 268 263 245 247 268 280 260
8 8 9 7 5 4 3 3 3 9 12 7 22 38 26 11 359 334 334 328 308 305 307 304 297 278 276 268 261 271 270 274 289 308 335 10 5 357 349 329 337 343 325 329 5 103 155 174 245 344 357 349 344 321 300 319 328 329 324 306 340 77 258 277 266 275 278 261 262 271 272 276 276 274 281 305 300 284 277 275 279 279 271 275 305 313 290
7 6 7 7 5 3 3 3 3 7 11 14 28 34 17 356 342 335 335 320 304 312 311 306 305 294 277 265 275 287 304 332 349 -0 355 353 335 335 349 348 349 348 326 325 346 0 153 160 249 289 274 305 313 304 305 315 316 318 319 315 347 28 303 316 331 286 264 191 259 275 286 289 280 279 289 287 270 266 255 247 245 240 256 282 305 303 283
5 4 4 5 5 4 3 3 4 6 9 15 27 26 9 352 336 4 1 317 295 312 305 292 289 302 328 328 315 318 4 2 2 8 349 343 340 350 3 6 356 354 333 322 336 341 338 328 313 302 277 282 295 286 287 292 287 284 307 303 317 357 329 329 322 287 281 124 268 295 340 320 285 266 232 223 239 253 259 260 252 233 227 248 264 255 258
2 1 1 2 3 4 3 2 4 5 7 16 26 25 11 0 352 353 355 318 291 312 307 292 308 330 341 346 346 343 355 9 -0 355 354 346 338 338 344 347 342 343 318 314 326 335 334 332 327 316 300 291 291 283 277 276 272 269 275 282 286 292 288 278 244 266 288 33 24 346 326 284 261 233 201 257 277 276 277 281 273 256 231 225 256 267 304
358 357 357 358 358 360 1 1 3 6 13 22 32 37 18 358 347 349 348 308 296 313 303 310 327 333 340 349 358 348 341 10 22 357 339 324 318 316 320 331 342 302 297 301 310 322 326 328 332 326 314 304 297 287 275 266 261 259 253 250 270 271 252 245 226 239 271 48 68 330 268 249 242 21 333 305 303 301 298 292 291 24 24 353 334 339 3
354 353 353 353 353 354 355 359 1 1 12 28 37 45 20 348 345 8 356 318 284 315 327 325 326 335 349 350 352 348 343 351 2 351 325 296 288 287 288 285 274 288 300 306 318 331 329 322 328 331 322 310 297 281 267 259 254 251 244 237 239 238 226 232 226 225 268 303 136 210 258 278 303 323 311 298 303 19 22 319 316 19 13 344 347 358 8
348 348 348 348 349 348 348 354 359 355 -0 16 27 38 18 345 347 13 3 346 278 305 315 318 321 337 357 347 338 341 342 341 344 340 321 301 287 278 279 282 282 290 308 336 0 1 352 338 337 329 314 305 296 276 261 252 243 238 234 228 227 225 212 210 217 214 224 232 212 226 280 290 288 292 321 269 191 113 94 303 299 341 22 41 48 27 13
344 344 345 345 345 345 344 347 353 353 352 357 7 35 21 355 349 6 357 339 308 305 309 338 337 335 340 336 331 331 333 336 342 335 321 311 305 302 308 314 311 299 299 334 26 40 25 350 335 309 309 309 294 292 294 275 250 237 230 222 217 218 213 201 206 204 185 209 247 257 270 275 261 190 203 139 141 147 134 115 299 327 33 42 46 35 7
343 343 344 344 343 343 344 345 349 351 351 355 326 64 30 5 350 359 -0 342 329 280 293 341 346 337 324 324 337 350 2 352 346 338 329 328 328 326 328 334 337 323 299 282 96 100 116 131 234 257 274 281 276 280 291 301 300 280 261 246 223 214 212 205 213 220 181 192 231 227 239 261 219 171 187 138 139 147 120 65 303 283 14 22 30 16 342
342 342 343 343 343 345 346 348 352 354 354 2 13 95 45 8 342 349 10 352 318 277 283 326 348 345 338 336 341 352 2 345 333 338 344 328 320 318 320 328 334 331 322 208 143 71 127 210 255 264 256 268 285 290 292 296 300 308 316 314 293 230 205 198 216 239 227 208 235 244 244 271 93 119 136 134 136 120 75 19 272 259 302 320 322 311 312
342 342 343 344 345 348 349 351 356 357 356 3 9 8 21 350 337 351 1 346 324 284 279 332 351 343 346 354 342 344 354 349 338 330 308 292 306 317 319 324 329 326 325 20 100 83 321 236 246 264 267 274 284 284 289 298 293 296 313 317 317 319 293 182 190 221 238 235 249 265 245 99 49 72 149 142 116 66 64 235 248 278 304 304 310 320 316
343 343 345 346 346 351 353 353 357 -0 358 359 359 345 357 13 8 3 355 349 330 283 279 311 343 343 350 355 344 340 346 344 342 343 316 289 342 349 340 328 329 319 307 323 107 159 246 249 240 262 270 267 273 276 280 285 285 301 316 311 309 317 315 304 183 206 211 200 206 243 288 240 205 202 179 134 84 101 225 254 312 338 331 333 338 334 327
344 344 345 347 347 352 354 353 357 1 357 356 359 7 48 49 24 1 342 335 319 299 293 302 328 327 333 338 327 322 328 328 328 338 330 306 343 355 354 337 356 356 333 332 0 180 233 248 257 276 262 262 295 302 292 298 303 315 326 317 315 324 305 306 317 281 218 36 239 232 311 238 197 178 79 76 155 248 274 296 323 323 320 324 318 308 305
344 343 345 347 347 350 353 351 354 356 353 353 354 354 10 43 35 359 325 313 309 303 298 303 313 312 315 312 299 295 298 294 295 308 312 311 332 351 328 292 330 341 337 350 340 272 293 287 271 287 293 307 339 332 318 323 318 324 341 339 326 341 350 315 329 11 54 356 299 217 293 291 231 192 223 247 268 287 286 282 300 304 295 281 279 285 288
343 342 344 345 344 347 352 353 353 354 353 351 348 343 337 337 31 340 314 306 296 286 286 300 314 315 308 293 287 288 289 282 278 295 302 299 304 303 286 299 310 312 335 7 353 278 329 329 300 331 332 316 331 320 322 330 306 315 343 341 307 346 19 330 234 337 56 261 264 281 307 320 326 314 302 305 313 310 291 270 289 298 288 276 278 282 282
342 341 341 341 342 344 347 350 352 351 349 346 343 339 334 333 8 355 324 314 308 300 298 309 320 322 328 325 326 342 303 276 268 287 289 278 280 284 283 296 311 322 355 23 18 340 349 6 315 336 334 303 321 320 308 302 283 293 324 308 293 343 16 28 255 323 333 298 293 307 313 318 319 312 312 329 350 348 328 314 313 311 303 295 288 285 282
341 340 339 339 341 342 342 343 347 344 340 338 335 332 330 338 9 350 335 332 331 326 324 323 315 320 336 334 331 343 312 269 275 294 283 255 251 270 272 282 302 311 324 345 349 335 330 328 298 300 294 294 312 304 277 279 289 289 301 300 302 348 10 8 319 320 343 321 311 323 325 323 321 319 327 345 355 347 335 326 319 315 311 302 293 292 289
339 337 337 337 339 342 343 342 339 335 330 327 325 322 320 318 320 319 320 327 329 326 323 314 311 330 338 323 310 312 312 297 295 296 282 260 254 255 264 281 289 289 296 307 314 313 310 311 289 292 297 276 265 260 254 261 276 293 304 297 292 335 355 352 307 302 308 282 290 311 325 327 324 326 335 337 328 320 319 316 304 301 303 299 296 298 296
337 336 336 337 335 336 338 336 332 329 325 320 318 316 310 304 301 296 297 314 315 305 283 283 298 322 325 314 308 323 326 315 302 294 285 277 272 266 271 279 274 268 281 294 295 285 271 240 218 267 268 254 254 261 262 267 286 302 294 271 273 297 314 298 268 289 287 273 289 318 327 319 309 308 315 319 314 308 304 297 283 282 288 291 293 295 294
336 335 334 334 334 334 335 334 330 328 325 320 319 317 310 301 289 264 263 291 300 293 272 282 298 310 314 312 319 336 328 313 304 299 289 282 281 282 281 271 261 264 274 277 274 265 247 225 236 243 250 272 286 286 278 281 286 280 267 268 271 277 281 264 262 284 276 261 288 315 316 297 294 300 306 309 308 302 290 281 282 285 288 295 296 291 289
335 336 336 338 338 337 336 335 330 328 327 325 325 328 331 338 18 152 233 255 262 267 280 293 300 306 311 315 322 325 316 302 299 303 298 286 279 279 278 267 256 259 261 259 260 254 227 236 254 249 253 270 281 280 278 280 279 260 252 262 258 248 254 269 270 264 260 266 278 285 279 271 283 295 300 303 305 300 288 283 288 290 291 298 300 289 285
337 338 340 341 340 337 333 330 328 327 326 327 334 354 24 35 28 320 274 257 254 264 278 287 293 298 303 308 314 320 320 305 289 288 291 289 278 273 277 275 266 260 258 259 261 254 248 255 256 252 251 241 219 246 264 256 253 251 255 259 258 258 269 278 278 277 279 282 285 286 282 280 289 297 298 299 300 298 291 287 289 290 289 289 287 280 281
339 339 340 339 337 335 330 327 327 327 327 331 342 355 14 71 157 223 256 252 252 268 286 292 293 298 300 304 312 322 324 317 307 303 305 304 293 285 287 287 286 282 272 261 255 252 256 259 254 251 252 248 241 245 236 224 247 258 257 260 267 273 279 282 284 287 291 295 300 300 294 292 296 298 297 298 299 298 292 286 287 290 288 282 277 280 286
339 335 335 335 334 332 329 328 329 327 328 338 340 318 319 99 155 273 305 273 263 280 297 289 284 295 300 304 313 321 317 317 326 331 326 316 307 302 298 293 292 291 280 263 258 265 265 253 249 259 258 248 237 225 248 258 271 266 266 271 277 280 282 285 287 289 294 300 305 305 299 296 295 292 290 293 298 299 295 290 289 291 290 283 276 281 291
334 330 333 336 333 330 328 325 323 320 323 331 301 268 279 298 308 317 329 318 294 292 294 287 285 292 299 305 314 320 320 322 331 331 322 317 313 305 294 285 279 277 274 264 250 250 252 242 239 252 256 245 230 215 250 237 246 265 275 283 287 285 285 285 286 292 298 299 299 302 303 299 294 289 288 289 292 295 296 295 296 296 291 281 271 270 281
335 334 337 339 334 330 329 326 317 304 302 323 327 298 282 286 295 305 315 320 312 292 266 280 297 275 279 299 308 314 321 332 338 329 316 311 304 287 278 280 276 267 258 241 212 212 243 238 230 244 254 247 232 217 240 243 254 267 276 283 286 285 285 288 295 302 303 296 287 282 287 291 293 295 296 294 290 290 291 295 301 302 296 289 280 278 282
340 341 344 340 326 323 326 329 318 296 285 308 320 319 314 309 308 304 299 301 306 284 251 254 264 264 288 297 299 316 345 345 337 322 305 305 308 298 289 295 294 271 244 231 222 224 240 237 227 245 259 247 225 218 257 256 262 269 275 279 283 285 290 300 305 304 299 294 291 286 284 286 292 297 295 288 284 287 293 299 303 303 301 298 290 287 288
344 346 336 321 312 308 307 309 309 301 300 301 299 302 310 311 312 310 301 288 282 262 241 237 228 243 299 295 282 341 345 330 317 307 305 313 323 320 309 303 299 281 262 252 240 230 235 234 224 232 252 241 209 221 245 259 275 285 289 291 294 298 301 300 296 290 287 289 291 288 286 290 299 303 302 295 294 303 310 308 306 308 312 308 300 298 294
340 333 321 318 316 309 305 302 297 302 326 322 312 310 309 306 307 310 304 281 253 241 258 274 256 254 291 299 299 320 319 314 322 331 325 321 327 328 322 316 290 282 286 276 253 248 270 268 245 213 228 240 236 254 283 302 308 307 305 302 301 299 294 288 285 285 286 288 287 284 288 303 317 324 329 326 319 317 313 304 298 300 307 310 314 311 281
332 324 323 332 331 321 318 325 328 315 325 326 322 317 309 303 305 309 298 275 248 241 247 254 259 265 272 286 305 302 300 322 352 349 328 315 319 321 318 311 280 286 297 290 265 282 290 288 281 241 231 249 266 314 329 329 322 313 308 304 299 293 288 285 282 280 277 277 291 322 332 336 340 342 339 331 320 313 308 300 291 291 302 306 306 295 251
330 327 329 340 343 346 10 31 332 314 318 322 322 319 310 296 295 292 265 245 238 238 232 225 254 266 258 251 288 299 309 332 338 329 318 321 325 318 308 300 293 304 309 284 280 293 294 286 271 246 254 274 320 340 334 323 315 311 308 303 297 290 283 278 272 261 219 78 37 8 355 349 346 345 343 335 324 319 318 309 291 286 303 304 284 258 237
340 343 346 352 347 338 326 312 305 307 314 312 298 295 286 258 252 245 216 205 210 220 212 212 243 252 242 241 290 306 323 338 326 306 322 329 320 308 307 312 319 331 320 284 299 310 304 269 269 275 265 295 339 335 328 320 314 313 309 306 306 304 303 98 98 101 98 82 51 15 2 356 347 345 345 340 336 348 1 348 304 271 288 264 183 149 130
353 354 353 345 332 322 317 314 309 308 312 292 262 258 256 238 231 221 208 206 202 192 194 210 248 258 265 300 325 324 333 337 319 295 308 310 300 296 297 303 331 339 269 263 302 313 290 251 278 276 267 331 323 322 323 322 320 323 332 352 25 64 87 86 79 79 78 64 43 28 20 13 1 350 348 349 4 31 47 58 103 134 121 116 115 104 100
348 345 338 331 329 329 332 335 334 312 287 272 247 228 224 230 239 239 233 252 280 198 191 225 309 300 319 340 342 322 316 315 304 292 292 293 295 299 288 282 320 312 235 280 327 324 290 273 277 268 320 329 322 322 324 318 313 322 353 37 67 81 85 79 69 59 50 47 46 41 36 37 47 53 51 63 72 75 79 90 106 115 113 109 105 102 105
333 323 316 316 321 327 329 327 315 260 244 254 252 257 258 259 267 261 234 212 358 350 352 356 348 333 333 336 325 304 299 303 301 294 290 300 315 313 280 255 304 274 246 300 325 325 291 298 293 292 335 339 336 335 331 320 314 332 22 72 88 87 79 70 61 51 49 56 62 62 63 73 85 94 100 96 91 93 99 100 102 106 109 108 106 105 102
326 315 314 311 310 313 312 290 229 202 214 206 142 257 268 259 269 277 261 49 17 342 324 334 341 340 338 334 319 301 296 299 298 285 270 294 316 317 282 233 254 262 280 303 319 315 280 298 294 302 329 340 343 344 340 332 331 2 63 90 96 90 78 70 66 63 64 73 79 79 80 82 85 91 98 96 90 89 93 96 98 101 105 105 104 101 96
2 356 338 313 294 302 313 263 177 163 214 237 189 235 272 279 295 293 287 56 36 297 310 338 350 343 326 319 314 304 295 294 289 265 262 286 298 290 243 244 261 280 291 299 305 242 265 282 314 320 327 337 343 347 351 354 352 19 91 95 93 91 85 79 78 79 81 84 85 84 84 85 85 87 90 91 89 88 88 91 95 99 101 101 99 95 91
358 345 334 319 291 298 327 296 222 216 225 220 198 195 224 243 260 267 251 99 354 328 335 347 350 334 315 313 312 299 287 299 310 291 287 297 278 232 259 272 276 299 308 306 308 304 302 315 328 327 330 338 343 345 351 354 355 40 91 90 87 88 87 85 88 92 92 90 86 83 82 83 84 84 84 86 90 92 91 92 95 97 97 95 92 91 92
340 320 317 315 289 267 261 273 276 253 253 275 286 286 274 268 289 313 338 357 349 340 344 349 342 323 308 306 303 288 285 294 301 278 279 279 248 257 290 295 298 319 325 302 292 301 311 316 323 330 336 341 344 347 354 356 8 87 97 93 89 85 84 85 89 93 97 97 93 88 84 84 84 85 84 85 88 91 91 93 95 97 97 95 93 94 96
327 316 314 305 284 255 228 234 249 264 277 286 293 298 302 305 308 312 319 340 346 337 339 339 328 310 295 291 291 286 287 291 277 225 261 270 240 272 299 304 304 301 293 290 293 303 314 314 321 335 345 348 348 357 11 34 90 108 104 103 100 93 86 85 85 88 95 101 98 94 91 88 86 86 85 85 86 88 90 92 94 95 96 96 96 98 100
309 311 305 289 275 225 240 285 299 297 295 297 301 307 313 319 319 316 322 348 5 347 340 329 317 306 299 299 297 285 286 299 291 256 254 252 223 288 297 296 269 248 262 284 292 307 316 316 320 334 346 350 354 9 31 68 103 110 107 108 106 96 87 84 82 84 92 97 98 98 96 91 87 85 84 83 83 83 85 88 91 93 94 94 94 94 94
292 286 266 265 277 280 289 302 309 301 294 297 304 310 318 329 324 311 312 337 359 347 333 317 305 300 311 320 309 285 268 287 283 258 297 309 291 290 314 294 283 292 327 348 305 313 319 320 323 330 337 343 2 35 56 80 103 109 107 108 107 102 95 88 84 84 86 87 88 91 92 90 87 85 83 81 81 81 81 84 86 88 90 91 90 87 85
268 259 248 249 264 283 291 295 294 287 296 306 309 310 318 329 322 312 320 4 5 343 327 311 296 282 269 295 288 262 272 297 292 299 308 291 246 258 296 281 276 301 316 303 307 318 323 323 323 326 330 340 23 64 74 87 104 111 112 112 111 109 104 96 90 88 86 83 82 83 83 82 82 81 79 80 82 82 81 80 80 82 86 87 85 81 77
257 252 248 248 254 264 275 279 277 278 289 295 297 302 310 314 311 310 321 337 341 336 329 316 303 289 264 260 251 257 313 321 311 272 270 260 222 265 281 262 265 291 296 300 311 323 327 325 323 324 328 352 76 91 88 94 107 115 117 117 117 117 114 105 96 92 89 86 83 82 80 79 78 76 75 77 80 80 78 76 75 76 79 78 76 76 76
243 254 266 268 268 270 272 273 273 274 277 280 289 300 306 304 301 304 308 313 318 311 298 299 299 282 248 257 266 289 303 300 282 265 276 290 5 79 245 263 280 292 299 309 319 323 321 321 326 334 358 104 115 112 104 100 108 119 122 121 119 121 121 115 104 97 97 96 89 83 81 81 80 77 75 74 74 74 74 72 69 67 68 69 70 72 73